Regional Weather Roundup
Issued by NWS

Home | Current Version | Previous Version | Text Only | Print | Product List | Glossary Off
Versions: 1 2 3 4 5 6 7 8 9 10 11 12 13 14 15 16 17 18 19 20 21 22 23 24 25 26 27 28

000
ASUS45 KSLC 241510
RWRUT

UTAH REGIONAL WEATHER ROUNDUP
NATIONAL WEATHER SERVICE SALT LAKE CITY UT
900 AM MDT TUE APR 24 2018

UTZ001>011-023>025-241600-

NORTHERN UTAH

CITY           SKY/WX    TMP DP  RH WIND       PRES   REMARKS
BRIGHAM CITY   SUNNY     49  30  48 E6        30.32S
HILL AFB       NOT AVBL
LOGAN          SUNNY     41  34  76 VRB5      30.36R
OGDEN          SUNNY     49  30  48 VRB3      30.30R
SALT LAKE CITY MOSUNNY   50  36  58 W5        30.30R
TOOELE VALLEY  SUNNY     48  39  71 NW5       30.32S
WENDOVER       SUNNY     51  26  37 S7        30.34R
HEBER CITY       N/A     41  27  56 CALM      30.32S
WEST JORDAN    SUNNY     48  32  54 N6        30.31S

$$

UTZ011>015-024>027-241600-

CENTRAL/NORTHEAST UTAH

CITY           SKY/WX    TMP DP  RH WIND       PRES   REMARKS
PROVO AIRPORT  SUNNY     49  32  52 SE6       30.30R
MOAB/CANYONLAN MOSUNNY   59  20  22 CALM      30.15R
DELTA          MOSUNNY   46  32  57 N9        30.28R
PRICE          SUNNY     53  23  31 NE12      30.23R
ROOSEVELT      SUNNY     46  27  46 E8        30.36R
VERNAL         SUNNY     46  25  43 NE15G25   30.35R

$$

UTZ013>016-019>022-027-241600-

SOUTHERN UTAH

CITY           SKY/WX    TMP DP  RH WIND       PRES   REMARKS
BRYCE CANYON   SUNNY     46  25  43 N7        30.28S
CEDAR CITY     SUNNY     48  28  46 N6        30.24R
MILFORD        SUNNY     50  29  44 MISG      30.26R
ST GEORGE      SUNNY     67  27  22 E9        30.10R
HANKSVILLE     SUNNY     59  18  20 N3        30.20R
BLANDING         N/A     63  26  24 NW5       30.24R

$$

REGIONAL REPORTS     COLORADO/ARIZONA

CITY           SKY/WX    TMP DP  RH WIND       PRES   REMARKS
CRAIG, CO      CLOUDY    36  28  73 W6        30.35S WCI  31
GRAND JUNCTION MOSUNNY   59  32  36 E13       30.17S
RIFLE, CO      MOSUNNY   48  32  53 NW15      30.25S
MONTROSE, CO   SUNNY     54  35  48 W5        30.22S
CORTEZ, CO     SUNNY     56  26  31 CALM      30.17R
COLORADO CITY    N/A     57  28  33 CALM      30.18R
PAGE, AZ       SUNNY     66  26  22 CALM      30.11R
GRAND CANYON   MOSUNNY   57  24  28 CALM      30.23S
KINGMAN, AZ    MOSUNNY   73  25  16 E3        30.06R
FLAGSTAFF, AZ  MOSUNNY   59  26  28 E5        30.24S

$$

REGIONAL REPORTS    NEVADA/IDAHO/WYOMING

CITY           SKY/WX    TMP DP  RH WIND       PRES   REMARKS
LAS VEGAS, NV  MOSUNNY   74  27  17 NW5       30.03R
ELY, NY        MOSUNNY   42  20  41 NE14      30.31R
ELKO, NV       SUNNY     43  27  53 CALM      30.30S
POCATELLO, ID  SUNNY     40  29  64 NE20      30.39S WCI  30
BURLEY, ID     SUNNY     43  27  53 E12G25    30.38S
EVANSTON, WY   MOSUNNY   33  25  72 NE14      30.37R WCI  23
ROCK SPRINGS,  CLOUDY    32  21  64 E18G25    30.42R WCI  20
KEMMERER, WY   CLOUDY    32  23  69 E9G18     30.40S WCI  24

$$




USA.gov is the U.S. government's official web portal to all federal, state and local government web resources and services.